Regional Weather Roundup
Issued by NWS

Home | Current Version | Previous Version | Graphics & Text | Print | Product List | Glossary On
Versions: 1 2 3 4 5 6 7 8 9 10 11 12 13 14 15 16 17 18 19 20 21 22 23 24 25 26 27 28
000
ASUS45 KTFX 190310
RWRMT
MONTANA REGIONAL WEATHER ROUNDUP
NATIONAL WEATHER SERVICE GREAT FALLS MT
900 PM MDT FRI AUG 18 2017

NOTE: "FAIR" INDICATES FEW OR NO CLOUDS BELOW 12000 FEET WITH NO
SIGNIFICANT WEATHER AND/OR OBSTRUCTIONS TO VISIBILITY.

MTZ001>007-043-190400-
WEST OF THE DIVIDE

CITY           SKY/WX    TMP DP  RH WIND       PRES   REMARKS
KALISPELL        N/A     79  36  21 SW8       29.90R
MISSOULA         N/A     78  27  15 NW10      29.97R
BUTTE            N/A     73  24  16 NW6       30.09R
MULLAN PASS      N/A     61  30  31 VRB3      30.15S
ANACONDA         N/A     75  21  13 W13       30.05S
DEER LODGE       N/A     66  30  26 W3        30.05S
EUREKA           N/A     77  37  24 MISG      29.89R
HAMILTON         N/A     82  28  14 CALM      30.00R
LIBBY            N/A     75  36  23 CALM      29.90S
PLAINS           N/A     80  34  19 SW8       29.95R
RONAN            N/A     76  41  28 CALM      30.00R
$$

MTZ008-052>055-190400-
SOUTHWEST MONTANA

CITY           SKY/WX    TMP DP  RH WIND       PRES   REMARKS
BOZEMAN          N/A     71  36  27 S7        29.98S
DILLON           N/A     71  30  21 W6        30.04S
W YELLOWSTONE    N/A     66  32  28 S8        30.21R
ENNIS            N/A     63  32  31 VRB7      30.11R
THREE FORKS      N/A     75  32  20 CALM      29.98R
TWIN BRIDGES     N/A     73  27  18 CALM      30.02R
$$

MTZ009-010-012-014-046-048-049-054-190400-
EAST SLOPES AND CENTRAL MONTANA

CITY           SKY/WX    TMP DP  RH WIND       PRES   REMARKS
CUT BANK         N/A     77  31  18 SW17      29.87R
GREAT FALLS    CLOUDY    76  28  17 SW12      29.89R HAZE
MALMSTROM AFB    N/A     72  29  20 SW10      29.88R
HELENA         CLOUDY    79  31  17 SW5       29.94S HAZE
AUGUSTA          N/A     75  26  16 W14       29.95R
BOWMANS CRNR     N/A     71  27  19 W10       29.93S
CHOTEAU          N/A     77  28  16 W12       29.92S
FAIRFIELD        N/A     78  27  14 W18       29.90R
POWER            N/A     73  27  18 SW7       29.89R
RAYNESFORD     MOCLDY    70  23  17 SW9       29.92S
ULM            CLOUDY    75  28  17 SW12      29.90R
$$

MTZ011-013-016-021-045-047-050-051-190400-
NORTH CENTRAL MONTANA

CITY           SKY/WX    TMP DP  RH WIND       PRES   REMARKS
HAVRE            N/A     74  34  23 VRB5      29.77S
LEWISTOWN        N/A     68  30  24 S8        29.93S
N BAR RANCH      N/A     72  28  20 W7        29.98S
CHINOOK          N/A     77  39  25 CALM      29.76S
DENTON           N/A     76  23  13 W12       29.85S
GEYSER           N/A     73  23  15 W13       29.91S
GRASS RANGE      N/A     73  29  19 CALM      29.88S
JUDITH GAP       N/A     75  26  16 W5        29.97S
WINIFRED         N/A     76  28  17 SE12      29.88R
$$

MTZ017>020-022>027-061-062-190400-
NORTHEAST MONTANA

CITY           SKY/WX    TMP DP  RH WIND       PRES   REMARKS
GLASGOW          N/A     74  34  23 E9        29.79S
JORDAN           N/A     76  34  21 CALM      29.82S
SIDNEY           N/A     72  53  51 NE6       29.85R
WOLF POINT       N/A     72  41  32 NE3       29.80S
MALTA          CLEAR     72  43  35 CALM      29.77S
PLENTYWOOD       N/A     73  46  38 CALM      29.83S
POPLAR           N/A     75  46  35 E9        29.81S
SCOBEY           N/A     72  41  32 CALM      29.83F
$$

MTZ028>42-056>058-190400-
SOUTHCENTRAL AND SOUTHEAST MONTANA

CITY           SKY/WX    TMP DP  RH WIND       PRES   REMARKS
BAKER            N/A     70  42  36 SE3       29.91R
BILLINGS         N/A     78  19  11 W10       29.91R
LIVINGSTON       N/A     67  33  28 S8        29.99R
MILES CITY       N/A     81  34  18 S6        29.84S
BIG TIMBER     CLEAR     77  21  12 SW5       30.00R
EKALAKA          N/A     74  36  25 SE6       29.93F
HARLOWTON        N/A     74  26  17 MISG      29.96R
LAUREL           N/A     74  29  19 CALM      29.92R
$$

REGIONAL REPORTS...DAKOTAS

CITY           SKY/WX    TMP DP  RH WIND       PRES   REMARKS
WILLISTON        N/A     71  51  49 SE5       29.85S
MINOT            N/A     68  53  58 SE3       29.86R
DICKINSON        N/A     67  52  58 SE10      29.90R
BEACH            N/A     66  45  45 E5        29.92S
CROSBY           N/A     64  50  59 S7        29.85R
TIOGA            N/A     63  52  67 S9        29.89S
WATFORD CITY     N/A     68  52  56 E8        29.87S
BISMARCK         N/A     63  58  83 SE6       29.92R
GRAND FORKS      N/A     64  61  90 SW6       29.84R
FARGO            N/A     65  60  84 S6        29.88R
BUFFALO SD       N/A     73  45  36 SE10      29.87S
RAPID CITY       N/A     67  46  47 VRB3      29.98S
$$

REGIONAL REPORTS...WYOMING/IDAHO/WASHINGTON

CITY           SKY/WX    TMP DP  RH WIND       PRES   REMARKS
GILLETTE         N/A     62  39  42 SE5       30.01R
SHERIDAN         N/A     64  46  52 CALM      29.97R
BUFFALO WY       N/A     70  37  29 W8        30.06R
CODY             N/A     77  36  22 NW7       30.06R
YELLOWSTONE LA   N/A     53  39  59 NW3       30.32R
IDAHO FALLS      N/A     75  34  22 S9        30.08S
SALMON         CLOUDY    68  48  48 VRB3      29.99R
BOISE            N/A     85  28  12 CALM      29.97S
SPOKANE        MOCLDY    79  36  21 SW12      29.94F
$$

REGIONAL REPORTS...ALBERTA

CITY           SKY/WX    TMP DP  RH WIND       PRES   REMARKS
EDMONTON       RAIN      61  54  77 W6        29.79R
CALGARY        PTCLDY    75  34  22 NW14      29.74S
LETHBRIDGE     PTCLDY    77  34  20 W17       29.76R
MEDICINE HAT   MOCLDY    77  43  29 SW9       29.69F
$$

REGIONAL REPORTS...SASKATCHEWAN

CITY           SKY/WX    TMP DP  RH WIND       PRES   REMARKS
SWIFT CURRENT  MOCLDY    72  43  35 S12       29.72S
REGINA         PTCLDY    72  43  35 SE10      29.76F
SASKATOON      PTCLDY    68  52  56 E10       29.73S
$$




USA.gov is the U.S. government's official web portal to all federal, state and local government web resources and services.